Location: *
(40.7873°S, 98.7174°E)
Time: 11:16:03
(UTC+00:00)

Kosmos-1816 - Pass Details

Date: 25 June 2024
Orbit: 959 x 1007 km, 82.9° (Epoch: 23 July)

Event Time Altitude Azimuth Distance (km) Brightness Sun altitude
Rises 10:32:38 0° 175° (S) 3,760 8.7 -5.3°
Reaches altitude 10° 10:35:56 10° 159° (SSE) 2,796 8.0 -5.9°
Maximum altitude 10:40:38 21° 111° (ESE) 2,087 7.1 -6.7°
Drops below altitude 10° 10:45:15 10° 64° (ENE) 2,750 8.0 -7.5°
Sets 10:48:26 0° 48° (NE) 3,680 8.8 -8.0°
